Location: Hamlin Beach State Park
(43.3614°N, 77.9586°W)
Time: 10:26:57
(UTC-04:00)

OTV 5 (USA 277) - Visible Passes

Search period start: 17 October 2018 00:00
Search period end: 27 October 2018 00:00
Orbit: 387 x 394 km, 54.5° (Epoch: 08 September)

Date Brightness Start Highest point End Pass type
(mag) Time Alt. Az. Time Alt. Az. Time Alt. Az.
17 Oct ? 05:14:34 26° ESE 05:14:34 26° ESE 05:16:08 10° ESE visible
17 Oct ? 06:47:00 11° W 06:48:33 14° SW 06:50:20 10° SSW visible
18 Oct ? 05:53:28 24° S 05:53:28 24° S 05:55:13 10° SSE visible
22 Oct ? 20:17:04 10° SSW 20:17:21 12° SSW 20:17:21 12° SSW visible
23 Oct ? 19:21:45 10° SSE 19:23:43 16° SE 19:23:43 16° SE visible
24 Oct ? 19:59:47 10° SW 20:02:22 52° SSW 20:02:22 52° SSW visible
25 Oct ? 19:03:49 10° SSW 19:06:39 30° SE 19:08:28 17° E visible
25 Oct ? 20:39:36 10° W 20:40:53 19° W 20:40:53 19° W visible
26 Oct ? 19:42:50 10° WSW 19:46:00 62° NW 19:46:51 42° NNE visible
